Hourly Data Report for November 11, 2017

All times are specified in Local Standard Time (LST). Add 1 hour to adjust for Daylight Saving Time where and when it is observed.

MAYO A
YUKON TERRITORY

63°36'59.000" N
135°52'06.000" W
503.80 m
2100701
71965
YMA

Download Data

Hourly Data (November 2017)
Hourly Data Report for November 11, 2017
Temp Definition
°C
Dew Point Temp Definition
°C
Rel Hum Definition
%
Wind Dir Definition
10's deg

Wind Spd Definition
km/h
Visibility Definition
km
Stn Press Definition
kPa
Hmdx Definition


Wind Chill Definition


Weather Definition


TIME
00:00 Legend Double Dagger -19.9 -22.3 81 36 3 24.1 95.87   -22 Snow
01:00 Legend Double Dagger -19.5 -21.9 82 36 1 32.2 95.95   -20 Cloudy
02:00
03:00 Legend Double Dagger -19.0 -21.4 82 36 1 32.2 96.09   -20 LegendNANA
04:00 Legend Double Dagger -18.8 -21.1 82 36 1 8.1 96.17   -20 Snow
05:00 Legend Double Dagger -18.6 -21.0 82 36 1 8.1 96.25   -19 Snow
06:00 Legend Double Dagger -18.7 -21.1 82 36 2 16.1 96.33   -20 Snow
07:00 Legend Double Dagger -18.8 -21.1 82 36 3 32.2 96.41   -21 Snow
08:00 Legend Double Dagger -19.0 -21.3 82 36 1 32.2 96.49   -20 Snow
09:00 Legend Double Dagger -19.7 -22.1 82 36 2 32.2 96.56   -21 Snow
10:00 Legend Double Dagger -21.1 -23.6 81 36 1 32.2 96.64   -22 Snow
11:00 Legend Double Dagger -21.5 -23.9 81 36 2 32.2 96.70   -23 LegendNANA
12:00 Legend Double Dagger -20.1 -22.4 82 36 1 32.2 96.76   -21 LegendNANA
13:00 Legend Double Dagger -19.0 -21.2 83 36 2 32.2 96.80   -21 Clear
14:00 Legend Double Dagger -18.3 -20.5 83 36 1 32.2 96.81   -19 LegendNANA
15:00 Legend Double Dagger -19.1 -21.3 83 13 3 32.2 96.82   -22 LegendNANA
16:00 Legend Double Dagger -20.6 -23.0 81 36 1 32.2 96.82   -21 Clear
17:00 Legend Double Dagger -23.5 -26.1 79 36 2 32.2 96.85   -25 LegendNANA
18:00 Legend Double Dagger -24.7 -27.3 80 36 2 32.2 96.89   -27 LegendNANA
19:00 Legend Double Dagger -26.2 -29.0 78 9 3 32.2 96.91   -29 Clear
20:00 Legend Double Dagger -27.3 -30.2 77 36 1 32.2 96.94   -28 LegendNANA
21:00 Legend Double Dagger -27.7 -30.6 77 36 1 32.2 96.92   -29 LegendNANA
22:00 Legend Double Dagger -28.7 -31.7 76 36 2 32.2 96.88   -31 Clear
23:00 Legend Double Dagger -29.3 -32.3 76 36 1 32.2 96.89   -30 LegendNANA

Notes on Data Quality.

Legend

  • E = Estimated
  • M = Missing
  • NA = Not Available
  • ‡ = Partner data that is not subject to review by the National Climate Archives
Date modified: